Precipitable_Water
0.60 0.58 0.56 0.53 0.52 0.52 0.51 0.51 0.49 0.48 0.49 0.49 0.47 0.46 0.46 0.45 0.45 0.43 0.43 0.42 0.42 0.42 0.42 0.43 0.44 0.44 0.42 0.43 0.41 0.38 0.37 0.28 0.24 0.25 0.32 0.31 0.40 0.54 0.53 0.56 0.60 0.61 0.73 0.72 0.82 0.87 0.81 1.05 1.22 1.40 1.36 1.36 1.36 1.38 1.66 1.74 1.80 1.67 1.35 1.28 1.15 1.26 1.24 1.33 1.27 1.31 1.35 1.27 1.40 1.48 1.55 1.45 1.30 1.57 1.63 1.71 1.58 1.51 1.46 1.40 1.42 1.37 1.36 1.34 1.32 1.37 1.39 1.48
0.62 0.60 0.58 0.56 0.54 0.53 0.52 0.52 0.50 0.48 0.49 0.49 0.48 0.46 0.46 0.46 0.45 0.45 0.44 0.44 0.43 0.43 0.44 0.44 0.44 0.44 0.43 0.41 0.41 0.40 0.34 0.28 0.23 0.26 0.22 0.30 0.49 0.58 0.59 0.57 0.57 0.60 0.67 0.62 0.73 0.82 0.83 0.97 1.16 1.33 1.31 1.19 1.43 1.36 1.63 1.53 1.73 1.43 1.34 1.30 1.13 1.30 1.36 1.55 1.53 1.50 1.39 1.31 1.44 1.50 1.57 1.44 1.33 1.55 1.59 1.47 1.37 1.35 1.29 1.26 1.30 1.28 1.34 1.30 1.30 1.34 1.38 1.40
0.64 0.63 0.61 0.60 0.57 0.56 0.54 0.52 0.51 0.49 0.48 0.48 0.48 0.47 0.46 0.46 0.46 0.46 0.45 0.44 0.45 0.45 0.45 0.45 0.45 0.43 0.43 0.42 0.40 0.39 0.35 0.25 0.26 0.17 0.22 0.35 0.38 0.56 0.61 0.59 0.58 0.60 0.55 0.56 0.71 0.92 0.96 1.07 1.19 1.27 1.19 1.06 1.23 1.27 1.50 1.45 1.56 1.47 1.36 1.16 1.23 1.39 1.44 1.56 1.65 1.54 1.59 1.48 1.40 1.44 1.51 1.48 1.44 1.50 1.63 1.43 1.32 1.32 1.17 1.15 1.19 1.19 1.14 1.17 1.21 1.27 1.30 1.34
0.66 0.65 0.63 0.62 0.61 0.60 0.59 0.56 0.54 0.51 0.50 0.49 0.49 0.49 0.48 0.47 0.47 0.46 0.46 0.45 0.46 0.46 0.46 0.46 0.45 0.44 0.43 0.41 0.41 0.39 0.37 0.23 0.20 0.43 0.55 0.62 0.41 0.45 0.53 0.55 0.56 0.57 0.54 0.57 0.69 1.09 1.20 1.24 1.22 1.10 1.03 1.03 1.12 1.34 1.29 1.53 1.41 1.38 1.38 1.21 1.30 1.44 1.33 1.49 1.62 1.63 1.60 1.59 1.45 1.46 1.53 1.47 1.50 1.52 1.55 1.44 1.30 1.35 1.31 1.40 1.14 1.09 1.08 1.12 1.18 1.21 1.25 1.24
0.67 0.66 0.65 0.64 0.63 0.62 0.61 0.61 0.59 0.57 0.54 0.51 0.51 0.49 0.49 0.48 0.47 0.48 0.48 0.47 0.46 0.47 0.48 0.48 0.47 0.45 0.43 0.42 0.38 0.42 0.25 0.23 0.42 0.62 0.70 0.64 0.55 0.48 0.45 0.48 0.52 0.52 0.53 0.52 0.82 1.07 1.21 1.20 1.13 0.95 0.93 0.89 1.01 1.22 1.28 1.40 1.47 1.44 1.37 1.44 1.44 1.46 1.35 1.47 1.62 1.66 1.60 1.63 1.56 1.53 1.41 1.41 1.62 1.57 1.54 1.47 1.28 1.23 1.35 1.42 1.30 1.17 1.13 1.09 1.11 1.16 1.22 1.21
0.68 0.67 0.66 0.66 0.65 0.63 0.62 0.61 0.61 0.60 0.58 0.56 0.53 0.52 0.50 0.50 0.48 0.48 0.48 0.48 0.48 0.48 0.49 0.50 0.50 0.47 0.44 0.42 0.37 0.34 0.19 0.15 0.53 0.65 0.76 0.68 0.58 0.56 0.48 0.44 0.47 0.47 0.52 0.55 0.81 0.96 1.07 1.12 1.06 0.87 0.82 0.85 0.86 0.95 1.24 1.33 1.45 1.16 1.34 1.35 1.42 1.49 1.33 1.51 1.59 1.62 1.63 1.54 1.52 1.46 1.54 1.58 1.50 1.43 1.58 1.56 1.44 1.50 1.66 1.56 1.36 1.24 1.18 1.14 1.18 1.18 1.17 1.18
0.68 0.66 0.67 0.66 0.65 0.64 0.63 0.62 0.61 0.60 0.59 0.59 0.58 0.55 0.53 0.50 0.50 0.49 0.48 0.47 0.49 0.50 0.52 0.52 0.52 0.50 0.44 0.41 0.39 0.27 0.16 0.21 0.27 0.63 0.62 0.63 0.57 0.51 0.50 0.42 0.43 0.45 0.49 0.57 0.79 0.86 0.99 1.01 0.93 0.82 0.78 0.83 0.95 1.01 1.16 1.38 1.45 1.25 1.20 1.32 1.32 1.43 1.41 1.51 1.55 1.68 1.62 1.54 1.48 1.62 1.63 1.48 1.49 1.30 1.58 1.50 1.59 1.63 1.65 1.56 1.37 1.29 1.25 1.20 1.14 1.14 1.13 1.16
0.66 0.66 0.65 0.65 0.65 0.65 0.64 0.62 0.61 0.60 0.59 0.59 0.59 0.58 0.56 0.53 0.51 0.49 0.48 0.47 0.49 0.53 0.55 0.54 0.53 0.51 0.47 0.32 0.22 0.20 0.23 0.18 0.45 0.55 0.59 0.58 0.54 0.48 0.44 0.38 0.34 0.38 0.46 0.61 0.74 0.81 0.90 0.88 0.80 0.82 0.78 0.77 0.84 0.96 1.16 1.26 1.34 1.20 1.22 1.35 1.41 1.42 1.44 1.51 1.58 1.56 1.60 1.59 1.59 1.59 1.48 1.49 1.53 1.51 1.54 1.47 1.58 1.67 1.61 1.55 1.35 1.26 1.22 1.20 1.15 1.12 1.11 1.13
0.64 0.64 0.64 0.64 0.64 0.65 0.65 0.64 0.63 0.61 0.60 0.59 0.59 0.58 0.58 0.56 0.52 0.49 0.47 0.47 0.50 0.54 0.55 0.56 0.54 0.51 0.51 0.32 0.15 0.16 0.30 0.44 0.56 0.62 0.57 0.56 0.50 0.43 0.35 0.25 0.31 0.30 0.46 0.65 0.72 0.79 0.90 0.78 0.78 0.78 0.70 0.80 0.90 0.88 1.06 1.06 1.03 1.23 1.25 1.31 1.35 1.37 1.38 1.47 1.54 1.51 1.61 1.59 1.59 1.41 1.38 1.58 1.62 1.70 1.48 1.62 1.66 1.68 1.65 1.47 1.35 1.22 1.16 1.16 1.15 1.13 1.08 1.07
0.60 0.60 0.60 0.60 0.61 0.61 0.62 0.62 0.62 0.62 0.61 0.59 0.58 0.57 0.58 0.57 0.54 0.50 0.48 0.47 0.51 0.54 0.56 0.56 0.57 0.50 0.37 0.28 0.28 0.15 0.46 0.63 0.63 0.53 0.52 0.53 0.48 0.36 0.27 0.23 0.25 0.30 0.46 0.56 0.70 0.78 0.82 0.82 0.70 0.74 0.75 0.74 0.81 0.78 0.77 0.96 1.04 1.23 1.23 1.28 1.22 1.35 1.35 1.46 1.44 1.49 1.56 1.50 1.56 1.39 1.42 1.48 1.67 1.51 1.20 1.68 1.70 1.66 1.56 1.40 1.32 1.19 1.13 1.14 1.13 1.12 1.06 1.03
0.58 0.58 0.58 0.58 0.57 0.57 0.57 0.58 0.59 0.59 0.60 0.58 0.57 0.56 0.56 0.57 0.55 0.51 0.49 0.49 0.52 0.54 0.56 0.56 0.55 0.48 0.28 0.35 0.20 0.27 0.64 0.60 0.67 0.64 0.59 0.45 0.34 0.27 0.20 0.21 0.25 0.34 0.46 0.59 0.71 0.83 0.91 0.84 0.74 0.70 0.71 0.66 0.71 0.71 0.76 0.80 1.15 1.14 1.22 1.24 1.24 1.36 1.31 1.43 1.53 1.46 1.47 1.36 1.50 1.47 1.43 1.56 1.64 1.53 1.33 1.56 1.66 1.65 1.46 1.32 1.24 1.19 1.15 1.14 1.11 1.07 1.05 1.06
0.58 0.58 0.58 0.57 0.56 0.55 0.56 0.56 0.56 0.57 0.57 0.57 0.56 0.55 0.56 0.56 0.54 0.51 0.51 0.52 0.52 0.55 0.56 0.57 0.53 0.44 0.33 0.25 0.18 0.34 0.65 0.65 0.66 0.58 0.53 0.35 0.24 0.22 0.25 0.25 0.29 0.41 0.50 0.59 0.67 0.77 0.81 0.82 0.74 0.68 0.56 0.70 0.64 0.71 0.74 0.89 0.92 1.10 1.15 1.03 1.19 1.28 1.17 1.34 1.36 1.34 1.36 1.26 1.46 1.47 1.38 1.36 1.42 1.32 1.56 1.64 1.70 1.68 1.49 1.26 1.21 1.16 1.14 1.12 1.09 1.03 1.04 1.04
0.57 0.57 0.58 0.56 0.56 0.55 0.55 0.54 0.54 0.53 0.54 0.54 0.53 0.53 0.54 0.55 0.53 0.51 0.53 0.53 0.55 0.55 0.57 0.56 0.50 0.42 0.32 0.17 0.17 0.41 0.59 0.69 0.68 0.60 0.46 0.39 0.27 0.27 0.34 0.33 0.33 0.45 0.59 0.59 0.58 0.55 0.65 0.70 0.69 0.62 0.64 0.64 0.62 0.61 0.68 0.90 0.90 0.95 0.94 0.93 1.08 1.15 1.12 1.39 1.43 1.37 1.31 1.38 1.47 1.34 0.90 1.15 1.31 1.49 1.60 1.68 1.63 1.58 1.42 1.24 1.18 1.15 1.15 1.13 1.05 0.98 1.04 1.03
0.56 0.56 0.56 0.56 0.55 0.55 0.55 0.53 0.53 0.52 0.51 0.51 0.51 0.51 0.52 0.51 0.52 0.53 0.53 0.54 0.56 0.58 0.57 0.52 0.46 0.40 0.35 0.18 0.39 0.52 0.55 0.66 0.76 0.62 0.46 0.46 0.32 0.27 0.37 0.39 0.37 0.47 0.57 0.57 0.56 0.59 0.51 0.58 0.60 0.60 0.65 0.63 0.62 0.71 0.69 0.70 0.80 0.72 0.81 0.90 0.87 0.91 0.92 1.29 1.39 1.32 1.20 1.42 1.40 1.36 0.92 1.08 1.32 1.43 1.58 1.60 1.68 1.54 1.35 1.24 1.17 1.13 1.12 1.11 1.06 1.00 0.99 0.98
0.55 0.54 0.55 0.55 0.55 0.55 0.55 0.54 0.52 0.50 0.49 0.48 0.49 0.49 0.49 0.48 0.50 0.52 0.54 0.55 0.58 0.59 0.53 0.49 0.42 0.39 0.26 0.26 0.42 0.50 0.63 0.70 0.60 0.55 0.58 0.56 0.42 0.35 0.40 0.47 0.40 0.47 0.54 0.54 0.55 0.52 0.53 0.50 0.51 0.51 0.54 0.66 0.70 0.67 0.64 0.66 0.69 0.73 0.65 0.62 0.75 0.80 0.95 1.11 1.43 1.37 1.05 1.32 1.41 1.23 0.95 1.08 1.30 1.36 1.56 1.64 1.61 1.57 1.36 1.24 1.21 1.13 1.11 1.07 1.03 1.08 1.00 0.99
0.53 0.53 0.55 0.55 0.56 0.56 0.55 0.54 0.52 0.48 0.48 0.48 0.46 0.46 0.47 0.48 0.49 0.51 0.54 0.56 0.56 0.57 0.52 0.36 0.39 0.33 0.22 0.24 0.44 0.64 0.53 0.47 0.53 0.55 0.58 0.62 0.55 0.52 0.48 0.48 0.51 0.49 0.54 0.56 0.54 0.48 0.46 0.45 0.42 0.47 0.51 0.59 0.59 0.58 0.60 0.60 0.64 0.67 0.62 0.61 0.63 0.77 0.89 0.95 1.28 1.47 1.26 1.23 1.31 1.20 0.96 1.15 1.24 1.44 1.59 1.60 1.56 1.52 1.41 1.31 1.21 1.19 1.13 1.06 1.05 1.11 1.01 0.99
0.53 0.52 0.54 0.55 0.56 0.56 0.56 0.55 0.52 0.50 0.46 0.46 0.45 0.43 0.45 0.48 0.49 0.50 0.52 0.52 0.53 0.52 0.42 0.37 0.48 0.42 0.18 0.41 0.53 0.47 0.45 0.43 0.49 0.53 0.55 0.59 0.55 0.52 0.38 0.44 0.39 0.45 0.51 0.51 0.50 0.44 0.41 0.35 0.41 0.43 0.48 0.47 0.53 0.54 0.50 0.52 0.55 0.60 0.63 0.59 0.64 0.76 0.82 0.81 1.15 1.38 1.37 1.19 1.05 1.21 1.09 1.13 1.26 1.45 1.54 1.63 1.56 1.51 1.41 1.41 1.31 1.29 1.16 1.09 1.06 1.12 1.02 0.96
0.52 0.53 0.54 0.56 0.58 0.58 0.57 0.55 0.54 0.49 0.47 0.44 0.43 0.40 0.42 0.48 0.52 0.50 0.52 0.47 0.52 0.49 0.43 0.52 0.50 0.36 0.22 0.36 0.29 0.33 0.48 0.47 0.41 0.48 0.48 0.51 0.53 0.48 0.42 0.39 0.38 0.42 0.40 0.38 0.44 0.36 0.37 0.28 0.31 0.26 0.31 0.40 0.44 0.44 0.43 0.43 0.52 0.56 0.58 0.56 0.60 0.77 0.82 0.84 0.89 1.19 1.31 1.21 1.08 1.11 1.10 1.13 1.24 1.39 1.50 1.55 1.56 1.49 1.42 1.42 1.37 1.39 1.32 1.15 1.06 1.12 1.05 0.94
0.53 0.53 0.57 0.58 0.60 0.60 0.58 0.56 0.55 0.51 0.47 0.44 0.42 0.49 0.60 0.65 0.67 0.62 0.60 0.54 0.39 0.25 0.25 0.29 0.29 0.22 0.25 0.33 0.37 0.43 0.43 0.51 0.48 0.49 0.43 0.45 0.52 0.51 0.47 0.41 0.35 0.29 0.27 0.25 0.30 0.31 0.34 0.29 0.28 0.22 0.19 0.25 0.34 0.38 0.41 0.51 0.58 0.61 0.63 0.59 0.63 0.65 0.70 0.77 0.97 1.13 1.20 1.11 1.04 1.08 1.02 1.09 1.20 1.30 1.42 1.49 1.55 1.45 1.43 1.44 1.43 1.47 1.41 1.30 1.10 1.11 1.06 0.95
0.55 0.57 0.59 0.61 0.60 0.60 0.60 0.58 0.56 0.52 0.48 0.39 0.38 0.47 0.58 0.56 0.54 0.58 0.57 0.52 0.35 0.33 0.45 0.44 0.35 0.29 0.34 0.39 0.40 0.45 0.59 0.47 0.44 0.47 0.51 0.49 0.50 0.51 0.46 0.39 0.33 0.28 0.25 0.17 0.24 0.25 0.32 0.22 0.19 0.16 0.18 0.21 0.27 0.36 0.41 0.51 0.59 0.58 0.58 0.58 0.61 0.73 0.75 0.88 0.97 1.06 1.17 1.11 1.02 1.07 1.11 1.10 1.16 1.26 1.38 1.47 1.51 1.49 1.45 1.42 1.46 1.46 1.46 1.38 1.27 1.19 1.05 0.95
0.59 0.60 0.61 0.61 0.60 0.60 0.60 0.59 0.57 0.52 0.49 0.43 0.37 0.46 0.47 0.38 0.31 0.29 0.38 0.40 0.42 0.45 0.43 0.45 0.40 0.42 0.37 0.40 0.41 0.46 0.41 0.41 0.51 0.51 0.51 0.50 0.49 0.50 0.42 0.33 0.30 0.22 0.22 0.21 0.21 0.28 0.27 0.22 0.20 0.20 0.18 0.21 0.24 0.28 0.36 0.44 0.54 0.53 0.52 0.51 0.48 0.68 0.74 0.85 0.93 1.03 1.13 1.01 1.00 1.10 1.11 1.11 1.16 1.27 1.38 1.48 1.45 1.40 1.43 1.44 1.45 1.46 1.49 1.51 1.34 1.32 1.09 0.99
0.61 0.62 0.61 0.61 0.61 0.62 0.61 0.60 0.59 0.54 0.47 0.47 0.44 0.43 0.47 0.47 0.47 0.49 0.42 0.29 0.32 0.42 0.47 0.43 0.47 0.45 0.50 0.46 0.47 0.53 0.54 0.47 0.44 0.48 0.51 0.43 0.44 0.33 0.40 0.29 0.28 0.22 0.22 0.22 0.22 0.23 0.19 0.19 0.23 0.23 0.22 0.21 0.24 0.27 0.30 0.34 0.47 0.52 0.50 0.48 0.49 0.60 0.78 0.81 0.92 1.06 1.09 0.97 0.88 1.03 1.00 1.08 1.18 1.28 1.40 1.43 1.44 1.49 1.52 1.48 1.45 1.44 1.46 1.50 1.41 1.37 1.27 1.09
0.63 0.62 0.61 0.62 0.63 0.63 0.62 0.62 0.61 0.55 0.43 0.42 0.41 0.45 0.40 0.49 0.46 0.48 0.43 0.33 0.25 0.35 0.33 0.38 0.36 0.37 0.38 0.49 0.57 0.58 0.43 0.39 0.36 0.41 0.45 0.39 0.41 0.38 0.40 0.29 0.28 0.26 0.25 0.21 0.18 0.19 0.17 0.19 0.23 0.26 0.24 0.22 0.24 0.27 0.30 0.33 0.42 0.46 0.45 0.43 0.46 0.69 0.70 0.64 0.78 0.91 1.01 0.91 0.90 1.01 0.98 1.02 1.16 1.34 1.39 1.48 1.45 1.47 1.58 1.55 1.54 1.51 1.49 1.50 1.43 1.44 1.35 1.19
0.63 0.62 0.62 0.62 0.64 0.63 0.62 0.61 0.65 0.58 0.43 0.38 0.41 0.39 0.45 0.49 0.45 0.44 0.33 0.23 0.21 0.32 0.33 0.36 0.33 0.34 0.34 0.37 0.51 0.47 0.40 0.40 0.33 0.35 0.49 0.38 0.32 0.42 0.39 0.35 0.29 0.26 0.23 0.23 0.19 0.19 0.19 0.22 0.24 0.24 0.25 0.24 0.23 0.26 0.29 0.32 0.36 0.43 0.44 0.45 0.50 0.58 0.62 0.66 0.77 0.80 0.86 0.93 0.93 0.98 0.96 0.98 1.09 1.09 1.18 1.37 1.49 1.48 1.46 1.53 1.54 1.57 1.59 1.59 1.55 1.52 1.50 1.34
0.63 0.62 0.64 0.64 0.62 0.62 0.61 0.67 0.61 0.54 0.58 0.57 0.51 0.45 0.47 0.48 0.48 0.44 0.30 0.23 0.22 0.30 0.35 0.38 0.32 0.31 0.33 0.42 0.49 0.39 0.34 0.34 0.32 0.35 0.48 0.41 0.38 0.38 0.38 0.44 0.32 0.26 0.24 0.25 0.22 0.20 0.20 0.25 0.28 0.23 0.23 0.24 0.24 0.25 0.28 0.32 0.33 0.38 0.46 0.53 0.57 0.61 0.64 0.64 0.70 0.77 0.75 0.85 1.00 0.86 0.69 0.76 0.99 1.08 1.11 1.24 1.27 1.31 1.41 1.41 1.43 1.51 1.55 1.52 1.50 1.48 1.53 1.48
0.63 0.65 0.64 0.64 0.63 0.59 0.61 0.54 0.53 0.58 0.57 0.49 0.53 0.54 0.51 0.47 0.50 0.42 0.33 0.18 0.23 0.29 0.30 0.26 0.30 0.25 0.30 0.25 0.37 0.35 0.37 0.27 0.29 0.35 0.47 0.44 0.46 0.40 0.38 0.39 0.36 0.26 0.25 0.26 0.24 0.21 0.21 0.25 0.26 0.25 0.22 0.23 0.24 0.25 0.29 0.36 0.37 0.39 0.44 0.58 0.64 0.65 0.63 0.67 0.63 0.67 0.66 0.60 0.84 0.83 0.57 0.65 0.96 0.94 1.07 1.12 1.12 1.16 1.30 1.36 1.43 1.50 1.49 1.50 1.51 1.50 1.52 1.51
0.64 0.65 0.65 0.63 0.62 0.62 0.47 0.39 0.61 0.62 0.50 0.46 0.55 0.54 0.47 0.47 0.49 0.39 0.29 0.26 0.24 0.35 0.27 0.26 0.18 0.27 0.25 0.29 0.32 0.33 0.18 0.18 0.25 0.37 0.43 0.45 0.37 0.46 0.35 0.33 0.34 0.32 0.32 0.34 0.28 0.23 0.22 0.23 0.26 0.27 0.24 0.21 0.23 0.22 0.30 0.37 0.42 0.41 0.53 0.57 0.67 0.65 0.63 0.66 0.65 0.60 0.57 0.65 0.79 0.78 0.71 0.62 0.71 0.90 1.08 1.13 1.08 1.12 1.20 1.31 1.40 1.44 1.49 1.50 1.54 1.54 1.53 1.55
0.64 0.64 0.63 0.63 0.62 0.61 0.52 0.57 0.56 0.45 0.44 0.51 0.54 0.48 0.46 0.45 0.44 0.47 0.45 0.26 0.22 0.39 0.28 0.28 0.22 0.31 0.27 0.27 0.29 0.21 0.26 0.28 0.21 0.37 0.41 0.44 0.37 0.37 0.34 0.32 0.29 0.28 0.31 0.31 0.22 0.32 0.28 0.23 0.24 0.26 0.25 0.22 0.20 0.23 0.32 0.41 0.45 0.48 0.56 0.62 0.61 0.65 0.64 0.63 0.67 0.65 0.61 0.59 0.60 0.75 0.78 0.64 0.69 0.90 1.13 1.11 1.00 1.04 1.10 1.20 1.32 1.39 1.41 1.44 1.52 1.56 1.58 1.61
0.63 0.63 0.61 0.61 0.63 0.62 0.67 0.62 0.55 0.46 0.52 0.55 0.50 0.50 0.47 0.48 0.44 0.41 0.34 0.22 0.33 0.33 0.44 0.29 0.37 0.29 0.26 0.27 0.25 0.25 0.25 0.28 0.24 0.36 0.39 0.38 0.36 0.34 0.30 0.32 0.29 0.26 0.26 0.28 0.26 0.33 0.32 0.30 0.28 0.29 0.26 0.22 0.23 0.26 0.30 0.48 0.43 0.52 0.58 0.54 0.54 0.56 0.60 0.60 0.62 0.61 0.60 0.51 0.53 0.68 0.71 0.60 0.68 0.86 0.96 1.05 0.99 0.97 1.06 1.15 1.29 1.38 1.40 1.43 1.47 1.56 1.60 1.63
0.62 0.61 0.60 0.60 0.59 0.63 0.62 0.63 0.53 0.57 0.61 0.58 0.46 0.48 0.47 0.43 0.38 0.33 0.27 0.17 0.30 0.24 0.32 0.30 0.29 0.27 0.27 0.22 0.19 0.24 0.24 0.26 0.31 0.38 0.40 0.33 0.31 0.33 0.33 0.32 0.25 0.24 0.24 0.28 0.29 0.35 0.40 0.36 0.34 0.29 0.26 0.31 0.39 0.36 0.33 0.47 0.47 0.53 0.48 0.44 0.46 0.49 0.47 0.49 0.52 0.53 0.53 0.46 0.48 0.67 0.74 0.65 0.58 0.82 0.84 0.80 0.85 1.00 1.07 1.13 1.26 1.33 1.39 1.45 1.53 1.57 1.62 1.62
0.61 0.60 0.59 0.61 0.49 0.54 0.56 0.42 0.47 0.58 0.57 0.56 0.57 0.55 0.55 0.48 0.34 0.27 0.19 0.23 0.28 0.27 0.28 0.26 0.25 0.28 0.25 0.22 0.16 0.23 0.24 0.25 0.24 0.28 0.28 0.28 0.28 0.31 0.29 0.25 0.26 0.24 0.25 0.26 0.26 0.32 0.37 0.36 0.33 0.32 0.33 0.35 0.46 0.42 0.42 0.53 0.49 0.43 0.40 0.40 0.43 0.39 0.44 0.40 0.41 0.50 0.44 0.44 0.51 0.55 0.66 0.63 0.49 0.73 0.90 0.95 1.07 1.11 1.10 1.09 1.13 1.22 1.30 1.43 1.53 1.60 1.66 1.63
0.58 0.59 0.59 0.57 0.55 0.59 0.41 0.36 0.48 0.54 0.61 0.63 0.56 0.50 0.50 0.32 0.35 0.24 0.20 0.32 0.21 0.22 0.23 0.22 0.24 0.25 0.23 0.23 0.20 0.21 0.23 0.22 0.24 0.25 0.24 0.23 0.24 0.22 0.22 0.21 0.22 0.22 0.20 0.23 0.22 0.32 0.31 0.30 0.35 0.40 0.41 0.47 0.43 0.44 0.43 0.46 0.46 0.41 0.39 0.39 0.35 0.35 0.30 0.29 0.35 0.37 0.42 0.42 0.50 0.56 0.66 0.57 0.62 0.75 0.90 0.94 1.04 1.10 1.16 1.19 1.19 1.22 1.30 1.42 1.43 1.54 1.59 1.61
0.56 0.56 0.58 0.57 0.59 0.52 0.52 0.51 0.55 0.60 0.67 0.64 0.59 0.54 0.43 0.29 0.22 0.28 0.24 0.25 0.21 0.24 0.22 0.23 0.24 0.23 0.22 0.21 0.20 0.20 0.22 0.20 0.26 0.25 0.26 0.26 0.22 0.22 0.23 0.22 0.25 0.24 0.20 0.25 0.23 0.25 0.28 0.34 0.35 0.37 0.40 0.42 0.45 0.33 0.35 0.37 0.43 0.41 0.36 0.38 0.32 0.29 0.24 0.25 0.30 0.37 0.42 0.46 0.55 0.60 0.74 0.60 0.83 0.87 1.02 0.99 1.06 1.25 1.22 1.24 1.29 1.27 1.34 1.38 1.41 1.51 1.56 1.54
0.53 0.57 0.53 0.55 0.56 0.54 0.55 0.57 0.56 0.66 0.66 0.64 0.56 0.52 0.41 0.29 0.23 0.30 0.27 0.25 0.24 0.27 0.25 0.23 0.24 0.23 0.20 0.18 0.22 0.23 0.19 0.22 0.26 0.25 0.24 0.24 0.21 0.21 0.20 0.21 0.23 0.23 0.23 0.29 0.22 0.25 0.23 0.24 0.31 0.37 0.33 0.48 0.41 0.41 0.39 0.39 0.40 0.40 0.43 0.41 0.36 0.35 0.28 0.22 0.28 0.27 0.33 0.39 0.48 0.65 0.60 0.64 0.67 0.81 1.08 1.10 1.20 1.23 1.28 1.30 1.32 1.35 1.41 1.45 1.49 1.53 1.55 1.52
0.55 0.56 0.58 0.57 0.58 0.57 0.59 0.62 0.66 0.69 0.69 0.67 0.54 0.41 0.30 0.28 0.32 0.26 0.26 0.26 0.24 0.24 0.23 0.22 0.21 0.20 0.21 0.21 0.23 0.24 0.21 0.19 0.23 0.24 0.21 0.21 0.19 0.21 0.20 0.19 0.22 0.22 0.26 0.25 0.30 0.29 0.26 0.27 0.37 0.39 0.42 0.43 0.37 0.42 0.44 0.45 0.42 0.42 0.45 0.46 0.39 0.35 0.41 0.29 0.30 0.29 0.33 0.37 0.42 0.48 0.64 0.81 0.81 1.05 1.15 1.21 1.22 1.21 1.29 1.28 1.30 1.34 1.39 1.44 1.46 1.49 1.52 1.54
0.53 0.53 0.65 0.54 0.54 0.55 0.63 0.68 0.73 0.74 0.67 0.57 0.48 0.38 0.29 0.30 0.28 0.30 0.28 0.28 0.26 0.24 0.23 0.22 0.20 0.18 0.20 0.21 0.22 0.22 0.23 0.19 0.20 0.19 0.22 0.20 0.22 0.19 0.21 0.22 0.21 0.24 0.25 0.23 0.36 0.30 0.29 0.24 0.40 0.42 0.44 0.45 0.41 0.45 0.46 0.47 0.32 0.40 0.44 0.37 0.36 0.40 0.40 0.33 0.33 0.34 0.35 0.35 0.42 0.67 0.66 0.79 0.97 1.02 1.10 1.18 1.16 1.12 1.20 1.23 1.26 1.32 1.39 1.39 1.41 1.46 1.47 1.49
0.42 0.45 0.50 0.55 0.54 0.56 0.65 0.63 0.72 0.72 0.64 0.56 0.43 0.32 0.29 0.30 0.30 0.29 0.28 0.26 0.25 0.25 0.24 0.17 0.19 0.23 0.20 0.20 0.20 0.19 0.20 0.20 0.20 0.22 0.19 0.22 0.20 0.24 0.28 0.30 0.27 0.27 0.33 0.32 0.31 0.37 0.30 0.28 0.34 0.38 0.35 0.41 0.42 0.46 0.50 0.48 0.48 0.46 0.35 0.38 0.42 0.45 0.45 0.38 0.29 0.32 0.30 0.27 0.46 0.59 0.50 0.64 0.62 0.56 0.99 1.08 1.07 1.06 1.10 1.15 1.22 1.29 1.29 1.31 1.35 1.40 1.46 1.51
0.52 0.54 0.57 0.54 0.56 0.54 0.53 0.65 0.70 0.65 0.60 0.50 0.34 0.30 0.33 0.27 0.28 0.26 0.26 0.25 0.24 0.27 0.26 0.21 0.23 0.22 0.21 0.22 0.22 0.22 0.24 0.21 0.22 0.22 0.20 0.22 0.22 0.29 0.30 0.30 0.31 0.34 0.37 0.38 0.36 0.34 0.36 0.27 0.30 0.37 0.38 0.38 0.38 0.41 0.41 0.46 0.48 0.41 0.39 0.43 0.33 0.30 0.29 0.36 0.33 0.25 0.26 0.30 0.49 0.57 0.61 0.61 0.67 0.66 0.83 0.85 0.92 0.99 1.06 1.10 1.11 1.13 1.18 1.26 1.34 1.43 1.51 1.56
0.61 0.65 0.51 0.50 0.54 0.43 0.52 0.61 0.61 0.57 0.51 0.44 0.32 0.32 0.30 0.29 0.27 0.24 0.25 0.25 0.24 0.26 0.26 0.25 0.23 0.25 0.23 0.22 0.25 0.24 0.26 0.21 0.25 0.24 0.22 0.24 0.25 0.30 0.31 0.32 0.32 0.35 0.35 0.37 0.34 0.35 0.35 0.28 0.28 0.33 0.33 0.32 0.33 0.34 0.31 0.37 0.44 0.44 0.41 0.35 0.37 0.37 0.33 0.31 0.32 0.33 0.32 0.44 0.41 0.52 0.59 0.56 0.77 0.83 0.88 0.84 0.94 0.96 0.98 1.03 1.06 1.11 1.16 1.21 1.31 1.40 1.46 1.53
0.58 0.59 0.57 0.51 0.48 0.45 0.45 0.56 0.52 0.48 0.43 0.32 0.31 0.33 0.29 0.31 0.29 0.27 0.28 0.28 0.25 0.29 0.28 0.28 0.26 0.25 0.23 0.25 0.26 0.25 0.26 0.25 0.24 0.24 0.23 0.26 0.27 0.35 0.33 0.35 0.32 0.32 0.34 0.36 0.35 0.38 0.33 0.34 0.27 0.30 0.34 0.31 0.27 0.29 0.31 0.33 0.33 0.33 0.30 0.30 0.33 0.33 0.37 0.35 0.33 0.31 0.30 0.42 0.42 0.45 0.47 0.62 0.81 0.90 0.99 1.03 1.01 1.01 1.00 1.00 1.05 1.11 1.14 1.20 1.26 1.32 1.37 1.44
0.61 0.55 0.50 0.57 0.48 0.43 0.50 0.48 0.43 0.37 0.35 0.35 0.34 0.29 0.27 0.30 0.28 0.32 0.31 0.28 0.28 0.32 0.29 0.30 0.29 0.29 0.27 0.25 0.28 0.28 0.29 0.28 0.26 0.28 0.27 0.29 0.29 0.30 0.35 0.35 0.34 0.32 0.32 0.33 0.36 0.40 0.34 0.34 0.31 0.29 0.30 0.27 0.27 0.29 0.30 0.35 0.34 0.31 0.30 0.28 0.29 0.29 0.30 0.27 0.26 0.32 0.33 0.38 0.40 0.41 0.46 0.66 0.88 1.01 0.97 1.08 1.14 1.11 1.07 1.02 1.03 1.09 1.14 1.21 1.26 1.34 1.39 1.42
0.57 0.47 0.45 0.50 0.46 0.45 0.47 0.42 0.44 0.43 0.33 0.31 0.30 0.29 0.28 0.31 0.31 0.30 0.33 0.30 0.33 0.31 0.30 0.34 0.35 0.34 0.31 0.31 0.31 0.29 0.29 0.29 0.33 0.29 0.31 0.29 0.32 0.32 0.34 0.37 0.35 0.34 0.32 0.31 0.36 0.41 0.37 0.36 0.35 0.30 0.28 0.27 0.28 0.29 0.30 0.33 0.36 0.31 0.29 0.28 0.30 0.30 0.30 0.28 0.24 0.34 0.49 0.49 0.53 0.48 0.45 0.62 0.93 1.02 1.01 1.06 1.14 1.15 1.11 1.07 1.02 1.07 1.11 1.17 1.26 1.32 1.39 1.41
0.50 0.50 0.57 0.38 0.44 0.43 0.44 0.43 0.42 0.39 0.31 0.30 0.28 0.31 0.31 0.32 0.32 0.30 0.33 0.31 0.34 0.32 0.33 0.30 0.35 0.37 0.36 0.36 0.34 0.32 0.28 0.28 0.29 0.28 0.31 0.32 0.33 0.34 0.34 0.36 0.37 0.38 0.38 0.35 0.38 0.40 0.39 0.33 0.31 0.33 0.34 0.33 0.30 0.29 0.28 0.29 0.32 0.29 0.27 0.28 0.28 0.29 0.32 0.30 0.33 0.39 0.44 0.53 0.46 0.50 0.44 0.61 0.91 1.00 1.09 1.11 1.12 1.13 1.13 1.08 1.04 1.04 1.06 1.10 1.21 1.30 1.27 1.32
0.51 0.50 0.43 0.36 0.47 0.45 0.42 0.34 0.39 0.36 0.34 0.34 0.27 0.31 0.32 0.30 0.29 0.30 0.32 0.33 0.33 0.34 0.35 0.35 0.35 0.38 0.38 0.37 0.36 0.33 0.31 0.28 0.32 0.32 0.32 0.34 0.32 0.38 0.35 0.35 0.36 0.34 0.32 0.32 0.33 0.39 0.33 0.37 0.33 0.29 0.26 0.25 0.26 0.27 0.26 0.29 0.28 0.27 0.26 0.26 0.26 0.31 0.33 0.35 0.35 0.42 0.42 0.51 0.50 0.46 0.38 0.56 0.88 1.07 1.06 1.06 1.11 1.06 1.05 1.05 1.06 1.00 1.02 1.06 1.13 1.22 1.26 1.30
0.55 0.58 0.48 0.38 0.39 0.39 0.34 0.34 0.35 0.35 0.32 0.27 0.31 0.27 0.30 0.32 0.32 0.29 0.31 0.30 0.32 0.33 0.37 0.34 0.32 0.32 0.34 0.39 0.39 0.40 0.35 0.34 0.32 0.34 0.35 0.35 0.32 0.37 0.36 0.33 0.35 0.32 0.35 0.39 0.41 0.43 0.36 0.36 0.35 0.28 0.24 0.21 0.21 0.19 0.21 0.22 0.22 0.24 0.25 0.25 0.25 0.30 0.33 0.33 0.29 0.39 0.39 0.58 0.59 0.52 0.58 0.70 0.86 0.98 0.98 1.00 1.05 1.08 1.06 1.05 1.06 1.04 1.00 1.06 1.10 1.14 1.20 1.23
0.51 0.43 0.44 0.50 0.37 0.40 0.36 0.39 0.35 0.30 0.38 0.37 0.32 0.25 0.30 0.28 0.29 0.30 0.28 0.32 0.33 0.34 0.36 0.35 0.36 0.34 0.39 0.33 0.33 0.36 0.36 0.37 0.40 0.35 0.33 0.35 0.35 0.34 0.34 0.32 0.31 0.32 0.35 0.36 0.43 0.37 0.35 0.38 0.39 0.36 0.33 0.30 0.34 0.31 0.34 0.31 0.26 0.22 0.23 0.25 0.26 0.31 0.33 0.33 0.37 0.39 0.37 0.55 0.55 0.56 0.58 0.69 0.76 0.81 0.89 0.93 0.95 0.99 0.97 0.98 0.98 0.98 1.01 1.05 1.10 1.12 1.15 1.16
0.59 0.45 0.39 0.34 0.41 0.45 0.42 0.36 0.38 0.30 0.30 0.30 0.29 0.22 0.29 0.27 0.30 0.31 0.34 0.28 0.31 0.32 0.34 0.35 0.33 0.31 0.34 0.34 0.35 0.37 0.41 0.35 0.35 0.37 0.36 0.34 0.35 0.33 0.30 0.29 0.30 0.30 0.31 0.36 0.38 0.36 0.34 0.36 0.38 0.36 0.37 0.37 0.37 0.32 0.31 0.31 0.29 0.26 0.26 0.25 0.29 0.30 0.31 0.31 0.33 0.38 0.46 0.48 0.46 0.64 0.62 0.61 0.70 0.78 0.80 0.84 0.88 0.89 0.90 0.94 0.97 0.99 1.00 1.03 1.05 1.08 1.11 1.14
0.44 0.39 0.35 0.48 0.37 0.36 0.34 0.30 0.34 0.34 0.32 0.30 0.27 0.26 0.26 0.30 0.26 0.27 0.33 0.35 0.28 0.32 0.28 0.38 0.37 0.34 0.38 0.40 0.38 0.34 0.37 0.38 0.38 0.35 0.41 0.39 0.36 0.36 0.28 0.28 0.28 0.28 0.29 0.34 0.38 0.37 0.32 0.32 0.37 0.36 0.35 0.39 0.41 0.36 0.32 0.31 0.29 0.27 0.25 0.26 0.28 0.30 0.30 0.29 0.31 0.40 0.45 0.37 0.40 0.62 0.66 0.61 0.69 0.79 0.82 0.83 0.85 0.87 0.88 0.90 0.92 0.99 1.03 1.06 1.06 1.03 1.02 1.05
0.55 0.47 0.46 0.47 0.43 0.34 0.32 0.29 0.29 0.33 0.26 0.22 0.25 0.28 0.30 0.30 0.27 0.25 0.26 0.34 0.33 0.34 0.33 0.32 0.36 0.36 0.36 0.41 0.40 0.39 0.39 0.36 0.37 0.41 0.42 0.40 0.41 0.34 0.28 0.28 0.28 0.28 0.29 0.29 0.35 0.37 0.32 0.32 0.35 0.35 0.34 0.35 0.37 0.36 0.34 0.32 0.31 0.29 0.27 0.28 0.30 0.29 0.27 0.29 0.30 0.37 0.44 0.45 0.53 0.60 0.65 0.67 0.74 0.78 0.83 0.86 0.90 0.90 0.90 0.94 0.95 0.93 0.94 0.96 0.99 0.99 0.96 0.97
0.45 0.45 0.34 0.49 0.47 0.40 0.34 0.36 0.33 0.39 0.37 0.35 0.35 0.22 0.32 0.25 0.27 0.27 0.27 0.28 0.32 0.34 0.31 0.29 0.36 0.39 0.39 0.42 0.43 0.40 0.41 0.43 0.44 0.39 0.44 0.44 0.41 0.39 0.39 0.39 0.37 0.31 0.31 0.32 0.30 0.34 0.27 0.29 0.35 0.32 0.30 0.30 0.33 0.33 0.33 0.32 0.31 0.29 0.28 0.27 0.28 0.27 0.26 0.28 0.32 0.50 0.50 0.56 0.59 0.61 0.66 0.67 0.83 0.90 0.88 0.91 0.91 0.91 0.91 0.89 0.89 0.89 0.90 0.92 0.92 0.95 0.97 0.97
0.56 0.62 0.62 0.51 0.41 0.27 0.31 0.34 0.42 0.39 0.43 0.36 0.30 0.31 0.32 0.28 0.24 0.22 0.27 0.25 0.25 0.27 0.33 0.31 0.35 0.36 0.35 0.42 0.41 0.41 0.45 0.47 0.46 0.45 0.47 0.44 0.40 0.43 0.43 0.42 0.42 0.37 0.34 0.31 0.28 0.30 0.24 0.27 0.30 0.30 0.26 0.26 0.30 0.30 0.30 0.32 0.32 0.29 0.29 0.27 0.25 0.25 0.23 0.25 0.33 0.55 0.49 0.57 0.62 0.60 0.58 0.63 0.77 0.89 0.89 0.90 0.89 0.87 0.85 0.87 0.88 0.90 0.90 0.90 0.91 0.92 0.96 0.96
0.55 0.62 0.73 0.59 0.40 0.42 0.41 0.42 0.38 0.41 0.35 0.37 0.33 0.27 0.29 0.29 0.32 0.29 0.37 0.35 0.28 0.22 0.27 0.30 0.32 0.35 0.36 0.36 0.39 0.43 0.46 0.47 0.45 0.47 0.48 0.47 0.48 0.46 0.45 0.49 0.47 0.41 0.38 0.35 0.36 0.29 0.27 0.25 0.25 0.28 0.25 0.26 0.29 0.30 0.29 0.29 0.29 0.26 0.27 0.29 0.28 0.25 0.25 0.24 0.29 0.53 0.55 0.61 0.54 0.51 0.57 0.70 0.75 0.83 0.81 0.86 0.87 0.87 0.86 0.87 0.88 0.91 0.92 0.91 0.89 0.90 0.93 0.94
Wind_Speed
16 16 16 15 15 15 15 15 15 14 14 14 14 14 14 14 14 13 13 13 12 12 12 13 13 13 13 13 14 13 13 14 14 15 17 17 17 17 16 16 16 17 17 15 15 15 14 13 12 12 10 8 6 6 4 2 2 3 2 2 3 4 4 6 7 8 8 8 8 7 7 8 9 9 9 9 8 9 9 9 11 13 13 14 17 20 20 19
16 16 16 16 16 16 16 15 15 15 15 15 15 15 15 15 15 14 14 14 14 13 13 13 13 13 13 13 14 14 13 14 15 17 18 18 18 18 17 16 16 17 17 17 17 16 15 14 13 13 11 9 7 7 6 3 3 3 2 2 3 4 5 6 6 7 8 9 9 9 8 8 9 10 9 8 8 8 9 11 13 14 15 16 18 19 19 19
17 16 17 16 16 16 16 16 16 16 16 16 16 16 16 16 16 15 15 15 15 14 14 13 13 13 14 13 14 14 14 14 15 16 16 18 20 19 18 17 17 18 18 18 18 17 17 15 14 13 11 9 8 9 6 3 3 3 2 1 2 2 4 5 6 8 9 10 10 9 9 8 9 10 9 8 8 8 8 11 14 15 16 18 17 18 18 18
17 17 17 17 17 17 17 17 17 17 17 17 16 16 17 17 16 16 16 16 15 15 15 14 13 13 13 14 14 14 14 14 14 14 13 15 19 20 19 19 18 18 18 19 18 18 18 16 14 12 11 9 10 10 7 5 4 3 3 1 2 2 3 4 6 9 10 11 10 10 9 8 8 8 8 9 8 8 8 9 13 15 17 17 17 17 17 17
17 17 17 17 17 18 18 18 18 17 17 17 17 17 17 17 17 17 17 16 16 16 16 15 14 14 13 14 14 14 14 13 13 14 13 13 16 18 19 19 19 19 18 19 19 19 18 16 14 13 12 10 10 10 9 9 6 3 2 1 3 3 3 4 6 9 10 10 9 9 10 9 8 7 8 9 8 8 8 10 14 16 16 16 16 16 16 16
17 17 17 18 18 18 18 18 18 18 18 18 18 18 18 18 18 18 17 17 17 17 17 16 15 15 14 14 14 14 14 14 13 15 14 13 15 17 18 19 19 19 19 19 19 19 18 16 15 14 12 10 10 11 10 11 9 4 3 2 3 3 3 5 7 9 8 9 9 9 9 9 8 8 8 8 8 9 10 11 14 15 16 16 16 15 15 15
18 18 18 18 18 18 19 19 19 19 19 19 18 18 18 18 18 18 18 18 18 18 17 17 16 16 15 14 14 14 15 16 15 15 15 14 14 16 18 19 19 20 20 20 20 19 18 17 16 14 13 11 11 11 10 12 10 6 4 4 5 4 5 6 7 8 8 9 8 9 9 8 8 8 8 8 8 11 11 12 14 16 16 16 15 14 14 14
18 18 18 18 19 19 19 19 19 19 19 19 19 19 19 19 18 18 18 18 18 18 18 18 17 16 15 15 14 14 16 17 16 16 16 15 15 16 18 19 20 20 21 21 20 20 19 17 17 15 14 12 12 11 9 9 9 8 6 5 5 4 6 7 7 7 8 8 8 9 9 8 8 8 7 7 9 12 12 13 15 16 15 15 14 14 14 14
19 19 19 19 19 19 19 19 19 19 19 19 19 19 19 19 19 19 19 18 18 19 18 18 18 17 16 15 15 15 15 15 16 16 16 16 16 16 18 19 20 21 21 21 21 21 19 17 17 17 15 14 13 11 9 8 8 9 9 7 6 5 6 8 8 8 7 6 7 8 8 7 8 8 6 6 10 11 12 15 15 15 15 14 14 14 14 14
19 19 19 19 18 19 19 19 19 19 19 19 19 18 18 19 19 19 19 19 19 19 19 18 18 17 17 16 16 16 15 14 15 16 17 17 16 17 18 19 21 22 21 20 20 21 20 18 17 17 16 15 13 13 11 10 9 10 11 9 6 5 6 9 10 9 7 5 6 7 7 7 7 7 6 7 11 11 13 15 15 15 14 14 14 14 13 13
19 19 19 18 18 18 18 18 19 19 18 18 18 18 18 18 19 19 19 19 19 19 19 18 18 17 18 17 17 17 15 15 14 14 16 17 17 17 18 20 21 22 21 20 20 21 20 19 18 16 15 14 13 13 12 10 10 11 11 10 7 5 7 10 10 8 6 4 6 8 7 7 6 7 7 9 13 12 13 15 14 14 14 13 14 13 13 13
20 19 19 18 18 18 18 18 18 18 18 18 17 17 17 17 18 18 19 19 19 19 19 18 18 18 18 18 19 19 17 16 15 14 15 15 17 18 18 20 22 22 21 20 20 20 20 19 19 18 16 13 12 12 12 10 10 11 11 10 9 7 8 10 10 8 6 5 8 9 7 6 5 7 7 9 13 12 13 15 14 14 14 13 13 13 13 12
20 20 19 19 18 18 18 18 18 18 18 17 17 17 17 17 17 18 18 19 19 19 19 18 18 18 18 18 20 19 17 17 16 15 15 15 17 18 18 19 21 22 21 20 19 19 20 19 19 18 17 15 14 11 11 11 11 11 10 9 9 8 8 9 10 9 6 7 11 8 6 7 6 7 7 8 13 14 13 15 14 14 14 13 13 13 12 12
21 20 19 19 19 19 19 19 19 18 18 17 17 16 16 16 16 17 17 18 19 19 18 18 18 18 18 19 19 18 18 18 17 17 16 16 17 18 19 20 21 22 21 21 20 17 19 20 19 18 17 16 15 12 11 12 12 12 11 10 10 9 9 9 9 10 8 8 11 7 5 8 7 8 8 8 12 14 14 15 14 13 13 13 13 13 13 12
21 20 20 19 19 19 20 19 19 19 18 17 16 16 15 15 16 16 16 17 17 17 17 17 18 18 18 20 19 18 19 18 18 18 17 18 18 18 19 21 22 22 22 21 20 18 18 19 19 18 17 17 16 14 12 12 12 12 11 11 11 10 10 9 9 11 10 9 9 5 5 8 8 10 10 11 12 12 13 14 14 14 13 13 13 13 12 12
21 21 20 20 20 20 20 20 19 19 18 17 16 15 15 14 14 14 15 15 16 16 17 17 18 18 18 19 18 18 19 19 19 19 18 18 18 17 19 21 22 22 22 21 19 18 17 18 18 17 18 18 16 15 14 13 12 13 12 11 11 11 10 9 9 11 10 9 8 6 6 7 9 10 11 12 13 11 11 12 14 14 14 14 13 13 13 12
21 21 20 20 20 20 20 20 19 18 17 16 15 15 14 13 13 13 13 14 14 15 17 17 17 18 18 18 18 19 20 20 20 20 19 19 18 17 18 19 21 21 21 20 20 19 18 18 18 18 19 18 17 16 15 15 14 13 13 12 11 12 11 11 10 10 9 9 8 7 6 7 9 11 10 11 13 12 11 11 12 12 13 14 13 13 13 13
21 21 20 20 20 20 20 19 19 18 16 16 15 14 13 13 12 12 12 12 13 14 16 17 16 16 17 18 19 20 21 20 21 20 20 20 19 18 17 18 19 20 20 20 21 20 18 18 19 18 19 19 18 17 17 17 15 14 14 12 11 12 12 12 11 10 9 8 8 7 6 7 9 11 11 11 13 13 11 10 10 10 11 12 13 13 13 13
21 21 20 20 20 20 19 19 18 17 16 15 14 13 13 12 12 11 12 12 12 13 13 15 16 15 14 16 18 20 20 20 20 20 20 20 20 19 18 18 18 19 20 19 20 21 19 17 19 19 19 20 19 18 18 18 17 15 14 12 12 13 12 13 13 12 11 9 7 8 7 7 9 10 11 12 13 13 11 11 11 10 10 10 12 13 14 13
21 20 20 20 19 19 19 18 17 16 15 13 12 12 11 10 10 10 11 13 14 14 14 14 18 18 15 15 17 19 19 20 20 20 21 21 19 19 19 18 18 19 19 19 19 21 20 18 19 19 19 20 20 20 19 19 19 16 14 13 12 13 13 14 14 13 12 9 8 9 9 9 9 10 11 12 13 12 12 12 11 12 11 10 10 12 14 13
21 20 20 19 19 19 18 18 16 15 13 12 11 10 11 10 8 9 10 13 15 17 17 16 17 18 18 16 16 19 18 18 19 19 20 21 20 19 19 19 18 18 18 19 19 20 21 20 19 20 20 20 20 20 20 19 19 17 15 13 13 14 15 13 14 14 13 9 9 11 10 9 9 10 11 11 11 12 12 12 13 14 14 11 10 11 13 13
20 20 19 19 18 18 17 17 15 13 11 10 9 9 10 10 9 10 10 11 14 16 18 18 17 17 17 15 15 18 17 17 19 19 20 21 20 19 19 19 18 18 18 19 19 19 21 20 20 20 20 20 20 20 20 20 19 17 16 14 12 13 15 14 15 15 14 10 10 12 10 9 9 9 10 11 11 11 12 13 15 16 15 13 12 12 12 13
20 19 19 18 18 18 17 15 14 11 9 8 9 9 10 10 9 10 10 11 12 14 16 18 18 17 16 14 14 16 16 17 18 19 20 20 20 21 20 19 19 19 18 19 19 20 20 20 20 21 19 20 20 20 19 19 20 18 17 15 12 13 14 15 17 17 16 13 12 12 10 8 8 8 10 11 10 11 11 12 14 16 16 15 15 14 12 12
19 18 18 17 17 17 16 14 12 9 7 7 9 9 9 9 8 8 9 10 11 12 14 16 17 17 17 15 15 16 16 17 18 20 21 20 20 21 20 19 19 19 19 20 20 20 20 19 20 21 21 21 20 20 19 18 19 19 18 16 14 14 14 13 16 16 14 13 14 14 9 8 9 10 10 10 11 10 10 12 13 14 15 15 15 15 13 12
18 18 17 17 16 16 15 12 9 8 7 8 8 8 8 8 7 7 8 8 9 9 11 13 14 15 16 16 16 16 17 17 18 19 20 21 21 20 19 20 18 19 20 20 20 20 20 19 20 21 21 21 21 20 19 18 18 18 19 18 14 14 15 13 16 17 13 13 16 14 8 8 10 11 11 11 12 11 10 12 13 14 15 16 16 17 15 12
18 17 16 16 16 16 13 9 7 8 8 7 7 6 7 6 6 6 6 6 7 7 8 10 12 12 14 16 16 14 16 17 18 19 20 20 21 20 18 18 18 18 19 19 19 18 19 20 19 20 21 21 21 20 20 19 18 17 19 19 15 14 16 15 17 17 15 16 17 14 10 10 11 12 12 12 13 12 12 12 12 13 14 16 17 17 16 14
17 16 16 15 15 14 11 8 8 9 7 5 5 5 5 5 4 4 4 5 7 7 7 8 10 10 12 15 15 13 12 15 17 20 21 20 21 20 18 18 17 18 18 18 18 18 19 20 20 20 21 21 21 21 20 19 19 18 18 19 17 15 15 17 18 16 13 14 16 15 11 11 12 13 13 13 12 12 13 13 13 13 15 16 17 17 17 16
16 16 15 14 14 12 9 9 9 8 7 6 5 5 4 3 3 2 3 3 4 6 7 7 8 9 11 13 15 14 12 12 15 19 21 19 19 20 19 18 17 18 19 18 18 18 18 20 21 20 20 20 20 22 20 18 19 20 17 16 18 17 16 17 17 16 14 13 15 15 12 10 11 13 13 12 13 14 14 14 14 15 15 17 17 17 17 16
16 15 15 14 13 11 9 8 7 6 6 6 6 4 3 2 1 1 2 3 3 6 7 7 7 9 11 12 14 17 14 11 13 17 20 19 19 20 18 18 18 18 19 20 19 18 16 19 21 20 20 19 19 21 22 19 19 20 17 16 16 17 19 19 16 16 15 13 14 16 15 11 10 13 14 13 13 14 14 13 13 14 15 16 17 17 17 16
15 14 14 13 11 10 9 8 7 7 6 5 4 2 1 1 1 2 3 2 2 5 6 6 7 9 11 11 13 16 15 13 12 16 18 17 19 20 18 18 18 17 18 20 21 20 16 17 20 20 20 18 16 19 22 21 19 20 18 17 15 15 20 20 16 15 14 14 16 19 17 12 11 14 15 14 14 15 14 13 13 14 14 16 17 17 16 16
14 14 13 12 10 9 9 8 7 7 6 4 3 1 1 1 1 2 2 1 2 3 5 7 7 9 11 11 12 14 14 14 14 15 17 16 17 19 18 17 17 17 17 18 21 20 18 17 18 18 18 18 17 18 20 20 19 19 18 17 15 13 17 18 17 15 13 14 17 18 16 13 12 16 16 15 15 16 15 14 14 14 14 15 16 16 16 17
13 13 12 10 9 9 8 7 7 8 6 4 3 2 2 1 1 1 1 1 3 2 3 6 7 7 11 12 13 14 14 13 13 13 14 15 16 17 18 17 17 17 15 15 18 20 19 17 17 18 18 18 18 18 18 18 18 19 18 17 16 13 14 15 16 16 14 14 16 15 14 11 11 15 17 15 15 16 15 14 14 14 14 14 15 16 16 16
12 12 10 9 8 8 7 7 7 7 6 4 4 3 2 2 0 1 1 1 1 1 2 3 5 5 9 12 13 15 14 13 13 13 13 14 15 16 18 18 18 18 15 14 17 19 19 17 17 18 19 21 21 19 18 17 18 19 18 17 18 15 14 15 15 15 14 14 14 13 12 12 12 14 17 17 16 15 14 13 14 14 14 15 15 16 16 15
12 10 9 8 7 7 7 7 6 6 5 5 4 4 3 2 1 3 3 2 1 2 2 2 3 2 6 11 12 13 14 14 14 13 13 14 14 15 17 18 20 19 15 14 15 17 18 17 17 18 18 20 23 21 19 17 17 20 18 17 19 17 15 15 15 15 15 15 15 13 11 13 14 15 17 18 18 15 13 12 13 13 14 15 15 15 15 14
11 9 8 8 7 6 6 6 6 5 4 5 4 3 4 3 2 4 4 3 2 3 4 4 4 3 5 9 11 13 12 13 15 13 12 14 14 14 15 16 19 19 16 14 14 15 18 17 17 18 17 19 22 21 19 17 17 20 20 18 20 20 17 16 16 16 16 16 14 12 11 13 14 13 14 16 17 16 14 13 13 12 12 13 12 13 13 14
9 8 7 7 7 5 5 5 5 5 4 4 5 3 3 3 3 4 4 3 2 4 5 4 3 3 5 6 9 13 11 11 14 13 12 14 14 12 11 13 16 18 16 14 13 13 15 16 16 18 17 17 19 20 19 17 16 19 21 19 19 21 18 14 15 16 16 15 14 13 13 14 14 13 13 15 16 15 14 13 13 11 11 12 11 11 12 13
7 7 6 6 7 5 4 4 4 4 4 5 5 4 4 4 4 5 4 2 3 4 4 3 3 2 4 5 6 9 9 8 11 12 11 13 13 9 8 9 11 14 15 14 12 11 12 13 15 18 19 17 18 20 20 19 16 17 21 19 17 18 18 14 12 14 14 14 14 16 18 18 16 15 16 16 15 15 14 13 12 11 11 12 11 11 12 12
6 6 6 6 5 4 3 3 4 4 4 5 5 5 6 4 4 5 3 3 4 3 3 2 2 2 3 4 5 6 7 6 7 9 9 9 11 8 7 9 9 9 12 14 12 11 12 12 12 14 17 17 18 20 20 21 19 16 18 19 17 18 18 15 14 14 13 13 14 15 16 17 16 16 19 19 17 16 15 13 12 11 11 11 11 11 11 12
6 5 5 4 3 3 3 2 4 5 4 5 5 4 6 5 4 5 3 3 4 2 2 2 2 2 3 3 5 5 6 6 6 8 8 7 9 9 8 11 11 9 10 13 13 11 12 13 13 14 16 15 16 19 20 20 19 16 15 17 19 19 17 16 16 16 13 13 15 16 15 16 16 16 18 18 18 17 15 13 13 12 11 11 11 11 11 12
6 4 3 4 3 3 3 2 3 5 5 5 4 4 5 5 5 4 3 3 3 1 2 2 2 2 2 4 5 5 6 7 6 7 8 7 8 8 7 10 13 12 11 13 13 11 12 13 13 15 17 16 17 19 21 20 18 17 16 16 19 20 18 17 16 17 16 13 15 17 16 16 17 17 16 15 16 16 15 14 13 12 11 11 11 11 11 12
6 3 2 3 3 2 2 2 3 5 5 5 5 5 5 4 5 4 3 4 3 2 0 2 3 2 3 4 4 4 6 6 5 4 6 7 8 7 7 9 12 13 13 14 13 10 11 11 10 12 15 17 18 19 21 23 19 17 17 17 18 19 18 17 15 15 16 15 17 17 16 16 17 19 18 15 14 15 15 14 13 13 12 11 11 11 12 12
4 3 3 4 3 1 2 3 4 3 4 5 5 5 5 4 5 5 2 3 2 1 1 2 3 2 2 4 5 6 6 4 4 5 5 6 7 7 8 9 11 12 13 14 13 11 11 12 10 11 12 14 17 18 20 24 21 18 18 18 18 18 18 17 14 13 12 13 16 16 15 16 18 18 19 17 15 14 14 13 12 12 13 12 12 12 12 12
3 4 4 3 1 1 2 4 4 2 3 5 4 4 5 4 5 6 3 2 2 1 1 2 3 2 1 4 6 6 5 4 4 6 6 7 7 7 8 8 8 11 12 14 14 13 12 12 11 11 11 11 14 16 18 20 20 19 19 19 18 17 16 15 14 13 12 14 17 16 15 17 17 18 19 18 17 15 14 13 12 12 12 14 14 13 13 13
5 4 3 2 2 1 3 4 3 3 3 4 4 3 4 4 4 5 3 2 2 1 0 1 3 3 2 3 5 4 4 4 6 7 6 7 8 7 7 8 8 11 13 14 15 15 12 12 11 11 10 9 10 12 14 16 18 19 20 20 18 14 11 12 14 12 12 16 17 16 16 18 19 18 18 17 16 15 15 14 13 12 12 14 16 15 14 13
4 3 1 1 1 1 2 3 3 4 4 3 4 4 3 3 4 4 3 2 2 1 1 1 2 3 2 3 4 4 4 4 5 7 7 6 7 7 7 7 8 10 12 13 16 15 13 13 12 11 11 10 10 12 13 15 18 19 20 21 20 13 9 11 14 12 12 15 18 16 16 19 21 20 17 16 16 14 14 14 13 12 12 14 16 16 15 14
3 2 2 2 2 2 2 3 3 3 4 3 3 5 4 4 4 4 2 3 2 2 2 2 3 3 2 3 4 4 5 5 5 7 7 5 5 6 6 7 7 9 11 12 15 15 13 13 14 12 12 11 12 12 11 12 16 18 19 20 18 13 10 12 14 14 14 15 17 19 20 21 22 21 19 18 18 16 13 12 12 12 12 13 15 16 15 14
2 3 2 0 2 3 2 3 4 3 3 3 2 4 5 4 4 3 3 3 2 3 3 3 4 3 3 4 4 4 3 4 5 6 5 5 4 5 6 7 7 9 11 11 13 15 13 12 13 12 13 14 13 11 9 9 12 14 17 18 16 13 13 13 13 15 16 15 16 20 23 23 23 22 21 19 18 16 13 12 12 12 13 13 14 15 15 13
2 3 2 1 1 2 1 3 4 4 4 4 3 4 5 5 4 3 3 4 3 2 2 3 4 3 3 3 4 5 4 3 4 4 4 4 4 5 6 7 7 8 10 10 12 15 14 13 12 12 13 14 14 13 11 8 9 12 15 17 15 14 15 16 14 15 16 17 18 21 23 22 21 22 21 19 18 17 15 13 13 13 13 13 14 14 14 14
3 3 3 2 2 2 1 2 3 4 4 4 3 4 5 5 5 4 4 4 3 2 1 2 2 2 2 2 4 6 5 4 4 5 5 4 4 4 5 7 7 8 9 10 12 15 15 14 13 12 13 13 14 15 13 9 7 10 13 14 14 13 15 16 16 15 15 17 20 22 21 20 20 21 20 19 18 16 14 13 12 13 13 12 12 12 13 13
3 2 3 3 3 3 1 2 2 2 3 3 3 4 5 4 5 4 4 4 4 3 3 2 2 2 3 2 3 5 6 5 5 6 6 5 4 4 4 6 6 7 9 10 11 14 14 14 14 13 13 14 14 15 14 12 10 11 12 12 13 15 15 14 14 15 16 18 20 21 20 19 20 20 19 19 18 16 14 13 13 13 12 11 11 12 12 12
3 2 2 2 2 1 1 2 2 1 2 3 3 4 5 4 4 4 4 4 4 3 3 4 3 3 2 2 3 4 5 6 6 6 7 6 6 5 6 7 6 6 8 9 10 12 13 14 14 13 14 15 15 15 16 16 14 13 13 13 14 16 17 15 14 16 18 20 21 21 21 21 21 20 19 18 18 16 15 14 14 12 11 10 10 11 12 12
3 2 2 2 1 1 2 2 2 2 2 3 3 4 4 4 4 4 4 3 4 3 3 4 3 3 2 1 2 3 5 7 8 8 8 8 8 8 7 8 8 7 7 8 9 11 12 14 14 13 14 16 16 16 16 17 16 15 15 15 14 15 16 15 15 17 20 21 21 22 22 22 22 21 20 20 19 17 15 14 14 13 12 12 11 11 12 12
Wind_Direction
312 310 308 306 303 300 297 294 291 288 286 284 282 280 279 278 278 277 277 276 273 270 266 263 260 257 252 248 247 247 246 242 237 232 227 225 219 217 217 211 208 206 205 205 203 201 200 201 202 208 212 207 204 190 169 157 147 110 77 83 92 89 99 128 142 144 139 143 150 146 147 140 130 138 140 132 132 136 135 133 130 129 132 130 129 135 139 141
311 309 307 305 303 300 297 294 291 288 285 282 280 278 276 275 275 274 273 273 272 271 269 265 260 257 254 249 246 246 246 241 238 235 230 225 219 217 216 211 207 204 203 203 203 202 200 202 203 208 210 206 204 189 170 162 160 140 104 93 103 93 97 125 143 144 141 144 148 151 155 147 136 139 137 134 140 138 133 134 132 131 134 133 133 135 139 142
311 309 306 304 302 300 297 294 291 288 285 282 279 277 275 273 272 272 271 270 270 270 269 266 262 258 254 250 247 245 244 241 237 233 229 224 219 218 215 211 207 205 205 204 204 202 203 203 202 205 204 204 205 190 172 171 177 162 152 126 131 104 97 129 146 145 145 144 147 152 153 149 143 139 138 141 140 127 126 134 134 136 139 139 139 138 140 143
310 308 306 304 301 299 297 294 291 288 285 282 279 276 274 272 271 270 269 268 268 268 267 266 263 259 255 251 247 244 241 238 230 223 224 221 216 215 213 211 208 207 208 206 205 205 209 208 204 202 201 207 207 195 184 185 185 166 172 160 152 135 105 139 151 147 145 143 146 149 149 153 149 141 146 145 133 126 134 143 136 138 143 142 141 141 144 144
309 307 306 304 302 299 297 294 291 288 285 282 279 276 273 271 270 268 267 266 266 265 264 263 262 260 256 252 247 243 237 229 223 220 222 219 213 212 212 211 210 210 209 207 208 211 215 214 209 207 205 209 212 206 193 190 190 174 193 174 167 176 137 147 151 144 145 146 146 148 151 156 150 145 148 139 133 137 146 151 141 139 144 144 143 143 145 144
309 307 305 303 302 300 298 295 292 289 285 282 279 276 273 271 269 267 265 264 264 263 262 260 260 258 255 253 246 241 232 224 226 225 222 218 214 213 212 211 210 210 208 207 209 214 218 215 211 211 209 208 213 218 202 191 194 197 223 202 197 214 171 155 149 145 146 147 149 150 151 153 151 151 146 136 139 145 148 151 143 141 144 143 145 146 146 145
311 308 305 303 302 300 299 296 293 290 286 283 279 276 273 270 268 266 265 263 262 261 260 258 257 254 254 251 244 238 231 229 231 224 219 219 217 215 213 212 210 208 206 207 209 213 218 213 209 211 212 210 210 221 206 192 201 207 214 206 211 216 182 165 147 147 151 147 149 147 148 157 159 153 146 144 149 149 152 152 144 142 145 145 147 148 146 147
313 310 307 304 302 300 299 297 295 292 288 284 280 276 273 270 268 266 264 262 260 259 258 257 254 251 249 247 242 239 233 230 227 220 220 221 220 217 214 213 209 206 205 207 207 211 216 211 209 211 212 211 213 219 200 190 215 218 206 207 213 203 177 163 148 152 154 148 147 145 152 163 153 145 150 159 158 154 156 152 145 144 146 148 150 148 148 150
316 313 309 307 304 302 300 298 296 293 290 286 282 277 273 270 268 266 263 261 259 257 256 255 252 248 244 243 240 239 233 225 221 221 223 222 221 218 214 212 206 204 204 207 209 214 216 210 209 212 214 218 222 227 211 201 225 219 204 203 201 192 170 158 159 163 156 148 151 152 161 166 150 143 155 169 161 157 156 151 147 149 149 150 152 150 152 154
318 315 312 310 307 305 303 300 298 295 292 288 284 279 274 270 267 265 262 260 257 256 254 252 249 244 241 239 235 236 231 223 223 225 224 221 220 216 213 210 204 203 205 207 211 217 218 212 210 213 218 225 227 227 221 213 213 207 201 197 194 191 170 164 169 164 148 141 150 153 160 169 163 155 161 169 163 160 156 151 150 152 153 153 154 154 157 157
320 317 314 312 310 308 305 303 300 298 295 291 286 281 276 271 267 264 261 259 256 254 252 249 245 241 240 237 234 233 229 224 226 227 224 220 216 214 211 207 204 204 205 207 211 216 217 214 215 215 217 222 223 221 221 218 209 202 199 194 195 187 168 175 178 164 155 149 145 144 148 160 167 163 166 165 165 169 160 154 154 155 156 156 156 158 160 158
321 318 315 313 311 309 306 304 302 300 297 293 288 282 278 272 267 264 260 257 254 251 249 246 241 239 239 237 233 230 229 226 222 222 224 219 215 213 210 206 205 205 207 210 212 214 214 215 219 219 219 219 217 216 221 225 217 209 204 197 195 184 176 186 185 174 179 174 155 147 144 157 163 161 165 159 163 173 165 157 157 157 158 158 158 161 161 160
321 318 315 312 310 308 306 304 303 301 298 294 289 284 278 274 269 263 259 255 252 249 247 243 238 238 238 236 231 227 230 227 219 221 223 220 214 211 211 208 207 208 211 215 215 215 214 216 221 222 224 221 214 220 228 227 222 216 213 207 199 190 195 202 194 182 178 173 169 165 164 172 167 161 170 163 164 174 167 159 160 159 160 160 160 164 162 160
321 318 315 312 309 307 306 304 302 301 298 295 290 285 280 275 270 264 258 253 250 248 244 239 236 236 235 234 232 230 230 223 219 225 223 218 214 210 212 210 209 210 214 219 220 221 218 217 221 223 224 219 218 227 228 222 218 214 213 210 205 202 208 215 208 186 173 180 181 176 181 180 173 173 184 175 167 174 169 161 161 161 162 163 163 165 164 162
320 317 314 311 309 307 306 304 302 300 297 294 289 285 280 275 270 265 259 252 248 244 238 236 234 235 235 235 235 231 228 222 221 226 222 218 214 211 212 211 210 211 215 219 218 222 221 217 219 221 220 217 219 221 217 215 213 211 213 214 212 207 205 210 213 197 183 191 192 177 179 182 178 182 186 176 169 172 169 163 164 164 163 165 167 166 166 166
319 316 313 310 308 307 306 305 303 300 296 292 287 284 278 273 268 264 260 253 246 239 234 236 234 233 234 234 233 229 226 224 224 225 222 219 216 213 212 210 211 212 216 218 217 219 220 217 218 219 218 216 215 214 215 216 215 212 211 216 211 199 197 201 214 212 191 186 192 182 182 187 182 183 184 175 169 167 168 170 169 167 166 167 170 168 167 168
319 315 312 310 309 308 307 305 303 299 294 289 285 281 274 270 266 263 260 252 245 238 235 237 236 235 235 233 233 230 226 225 224 222 220 219 217 215 212 210 211 213 215 216 216 217 217 214 215 217 215 214 212 211 215 216 215 212 209 217 211 195 196 201 211 215 193 185 192 183 181 188 182 182 183 175 168 165 170 175 172 171 170 171 174 170 169 171
319 315 312 311 310 310 309 306 303 299 293 287 280 274 270 267 264 261 257 250 244 240 238 237 234 233 232 231 232 228 224 223 220 218 217 217 216 213 212 213 213 213 215 216 216 215 216 214 213 217 215 212 213 211 213 214 212 206 204 213 210 198 200 199 205 213 203 195 191 182 183 185 181 180 181 179 172 170 175 175 172 173 173 175 178 172 171 174
319 316 313 313 312 313 311 309 305 299 292 284 275 269 265 263 260 259 253 246 241 237 237 231 223 226 231 231 230 226 222 218 215 215 214 214 214 212 213 216 214 214 214 215 214 213 215 215 213 215 214 212 213 212 213 215 214 210 207 214 210 204 207 199 201 211 205 198 192 189 186 179 181 181 182 184 179 175 178 178 176 179 179 180 180 175 175 178
320 317 315 314 314 314 312 310 306 300 292 281 272 267 262 259 258 257 249 241 236 235 240 233 222 228 238 238 230 221 217 213 212 215 214 213 213 211 214 215 213 214 215 214 213 212 214 215 214 215 214 213 213 212 216 218 219 221 223 227 218 206 203 195 198 208 200 195 204 198 186 180 181 181 182 182 179 178 179 178 179 183 187 187 182 178 178 180
321 319 317 316 316 315 313 310 306 301 292 277 269 263 261 264 264 263 254 242 238 235 239 240 230 229 236 242 230 214 211 212 212 215 214 213 213 212 212 213 212 214 216 215 214 213 213 216 216 215 215 214 215 213 215 220 221 225 224 229 229 210 201 196 197 205 199 197 205 193 183 184 183 181 182 181 180 184 183 180 183 188 191 193 189 186 183 181
323 322 320 319 319 317 315 312 308 303 291 273 262 257 260 268 267 268 264 252 246 238 236 237 233 229 233 237 222 208 212 215 215 215 212 211 213 212 210 211 213 214 214 214 215 214 215 218 217 216 215 214 216 215 214 219 220 221 218 223 231 207 197 199 197 199 201 202 200 189 183 184 183 184 185 185 184 186 187 185 186 190 192 195 194 191 189 184
326 324 324 323 322 321 319 315 312 306 290 266 258 256 262 271 270 270 265 256 253 246 237 230 228 229 227 224 214 211 217 217 218 216 211 210 212 212 210 211 214 214 213 213 214 215 215 218 218 217 217 213 216 216 215 217 216 218 217 219 223 201 194 200 196 196 200 200 193 185 185 186 188 193 189 184 181 181 186 186 187 191 193 196 196 192 193 190
328 328 327 326 325 325 323 320 317 312 294 271 264 262 265 273 274 274 266 254 251 250 239 226 224 228 225 221 217 218 221 219 220 216 209 210 212 211 211 212 213 215 215 213 214 218 217 217 215 216 218 215 215 215 214 216 216 218 217 218 219 206 202 202 195 196 201 202 192 177 181 200 199 197 192 186 182 181 182 183 188 194 195 196 196 196 196 194
331 330 329 328 329 329 327 326 328 324 308 280 270 270 271 274 275 275 267 252 246 243 232 221 221 226 224 221 217 219 224 223 223 215 208 210 211 210 212 213 213 214 215 214 215 219 220 217 212 213 216 216 215 214 214 217 216 216 214 217 219 204 204 207 196 191 190 197 196 183 187 212 204 193 191 192 191 191 189 186 190 194 197 198 197 200 200 195
334 332 331 330 331 331 329 331 336 333 319 286 273 281 279 276 281 278 263 250 245 230 218 215 218 223 221 217 214 220 227 224 222 213 206 210 213 211 213 213 212 214 214 214 216 218 219 218 214 212 213 215 216 215 215 213 212 216 212 213 217 202 200 205 196 190 189 195 201 203 203 203 202 197 194 193 192 194 195 193 194 193 195 197 198 202 201 195
335 334 333 333 334 336 337 335 334 334 330 309 293 295 286 279 288 282 253 247 240 219 211 215 218 222 218 214 212 216 221 218 215 209 203 208 214 213 214 214 213 214 213 214 218 218 216 217 217 213 211 213 214 214 214 211 212 215 207 205 213 209 204 203 199 203 207 199 202 209 204 197 205 203 195 192 188 192 198 196 196 196 194 195 197 202 200 197
337 336 335 336 337 339 341 336 332 331 329 328 316 304 298 285 281 270 248 251 231 214 216 215 217 222 216 213 213 214 218 215 209 206 202 207 212 211 213 216 217 218 215 215 218 216 212 215 217 214 211 213 214 212 211 212 211 211 207 206 209 209 210 204 200 208 210 200 201 205 199 197 210 205 194 193 189 190 197 197 196 198 197 196 197 200 201 199
338 338 338 340 339 339 341 339 337 336 331 333 328 313 304 282 248 226 247 254 230 218 219 217 223 225 217 215 214 213 218 218 208 204 203 209 213 211 213 218 221 223 219 217 218 215 213 215 216 215 213 212 214 211 208 209 207 208 215 217 212 213 212 207 205 206 206 206 203 200 198 197 205 204 195 194 195 190 191 193 193 196 198 198 198 199 200 201
338 339 340 343 346 347 347 342 343 347 343 341 344 337 298 270 223 248 257 246 220 214 219 226 227 223 217 217 213 210 215 214 208 206 208 212 212 210 217 222 220 220 220 219 219 218 219 217 214 215 214 212 211 207 206 208 208 210 216 217 219 221 212 209 211 207 209 218 210 200 200 200 203 206 202 200 199 192 189 192 194 196 198 196 196 198 200 201
338 339 341 346 352 355 353 351 357 3 5 0 2 3 313 306 211 256 279 252 237 227 231 227 220 220 217 216 211 206 211 213 209 209 209 209 210 210 217 221 216 216 221 221 218 218 219 215 211 213 212 210 209 206 207 211 213 213 212 211 216 217 204 205 210 206 210 221 215 204 201 207 212 210 206 202 197 195 196 200 200 199 197 193 193 195 196 198
336 337 341 345 352 359 2 7 9 10 17 20 13 360 339 357 205 242 11 270 246 263 259 217 203 219 216 212 210 205 209 212 207 208 208 209 214 214 214 215 210 210 219 220 216 216 216 215 212 210 210 209 207 207 209 213 212 209 210 208 208 205 196 200 206 206 212 219 216 207 201 215 223 208 203 202 200 200 202 201 200 200 195 193 194 194 194 195
335 337 341 344 352 3 9 11 11 9 13 17 15 15 26 65 163 292 0 335 249 278 298 204 188 220 214 210 211 205 209 212 205 210 214 213 216 215 214 215 211 209 215 219 217 213 214 219 216 208 210 212 210 208 208 210 208 206 208 205 201 199 196 199 205 206 214 220 210 195 194 211 214 201 199 199 200 200 198 195 196 198 196 194 194 194 195 197
332 337 344 348 352 2 7 9 12 11 15 23 29 42 46 49 357 342 354 350 322 290 294 213 197 224 208 209 209 202 207 212 208 211 215 214 214 213 215 216 214 213 215 220 218 212 214 219 214 207 207 209 210 211 209 211 210 207 208 205 202 204 200 199 206 208 215 219 208 195 199 207 202 197 195 193 193 194 191 190 191 192 192 192 193 193 194 197
328 337 347 349 350 360 10 14 17 16 19 28 35 47 34 3 331 346 344 329 325 322 311 272 246 238 208 208 208 203 207 212 212 213 214 213 210 210 213 214 214 213 214 220 218 213 218 217 208 208 210 207 208 209 208 212 214 209 208 209 210 210 204 202 209 211 212 215 212 205 205 202 196 193 193 192 192 191 189 188 187 185 185 186 191 194 195 197
326 334 344 351 354 4 17 20 24 23 19 24 28 23 356 343 329 329 324 310 305 321 317 280 235 214 199 203 211 209 209 212 215 217 215 209 204 204 209 210 210 209 209 215 215 214 217 216 212 211 210 208 208 206 205 209 212 209 209 214 215 209 204 207 214 212 208 208 210 203 192 191 193 195 201 201 193 190 193 191 185 183 183 186 193 198 199 201
332 332 330 335 344 357 15 23 28 29 21 19 19 353 334 342 331 320 318 308 301 315 316 266 205 184 187 198 208 201 197 206 213 212 210 205 202 204 206 201 202 204 203 202 207 212 209 212 220 213 206 208 209 208 211 212 210 207 209 213 214 206 206 211 214 214 209 206 208 201 191 193 201 205 207 203 193 190 194 191 186 186 189 194 199 203 204 206
345 341 325 321 336 360 34 52 41 28 14 6 6 346 339 352 345 328 315 292 306 319 321 281 206 197 205 203 196 181 185 198 199 201 205 201 200 206 205 195 190 195 200 198 202 211 206 207 217 209 202 207 208 207 211 213 210 206 207 211 208 204 209 211 210 212 208 203 204 203 202 205 208 209 205 198 191 189 188 189 191 190 192 197 199 201 206 209
347 348 341 345 12 33 42 56 28 16 9 2 5 354 344 352 357 349 331 299 312 325 287 254 185 211 240 204 197 201 204 205 201 208 213 200 199 209 210 204 202 203 207 205 205 207 204 208 218 212 205 207 205 204 207 209 210 208 211 214 209 205 207 208 212 215 208 204 205 206 212 215 210 207 203 196 191 190 190 193 197 195 192 197 200 200 206 210
348 350 355 11 33 36 26 23 7 6 5 354 346 346 349 354 356 353 342 322 314 301 282 229 188 234 228 195 215 227 211 211 221 224 215 197 194 202 205 210 216 220 218 210 205 204 207 216 223 216 212 214 210 206 207 207 207 208 211 215 212 211 211 212 221 221 212 209 209 204 210 217 211 206 204 196 191 193 194 196 201 201 197 198 200 200 204 207
349 356 354 359 6 16 13 359 350 356 6 4 350 356 4 356 350 343 328 334 310 248 219 168 198 233 200 197 217 194 181 201 218 204 197 194 195 204 214 222 223 222 219 211 204 207 210 213 216 210 212 216 211 207 211 210 209 209 210 213 214 212 212 215 226 226 216 211 208 203 206 213 209 205 206 205 198 196 196 196 202 205 201 200 198 198 201 202
348 357 340 338 347 6 4 347 338 337 1 2 349 357 2 346 353 356 329 336 328 246 171 174 204 224 200 201 196 177 177 201 205 189 192 195 198 209 222 229 228 222 216 210 207 210 207 203 208 213 215 215 210 208 209 209 211 214 212 212 212 210 212 217 222 223 215 207 202 200 202 207 208 207 209 208 200 193 191 192 199 205 205 204 200 199 202 202
331 320 328 351 21 34 358 353 349 343 354 351 343 352 355 347 1 6 360 6 0 299 213 209 198 174 185 191 188 198 216 219 199 196 203 206 208 220 226 230 231 222 213 209 208 208 206 206 211 215 217 214 206 201 199 202 209 215 214 211 208 208 213 215 213 210 206 201 200 203 208 209 209 209 207 201 197 196 195 192 195 202 207 206 203 203 205 205
324 307 317 34 55 14 354 356 357 0 353 351 360 12 5 1 356 345 345 14 9 347 334 222 188 182 188 174 179 209 225 208 196 196 204 214 218 226 231 231 230 220 211 207 205 203 207 213 208 206 212 211 200 195 197 205 211 213 213 211 207 209 216 214 210 208 206 201 198 202 209 207 201 199 200 198 199 201 199 197 197 200 203 204 202 203 206 207
333 319 302 345 332 321 354 357 353 356 354 353 4 11 12 12 2 338 311 327 331 295 279 274 214 212 208 178 185 211 214 202 200 203 207 216 219 223 228 227 221 213 210 212 209 205 208 210 203 198 201 200 199 199 203 214 217 215 216 215 213 214 216 210 207 204 204 202 197 195 199 201 198 195 195 197 198 197 192 191 197 199 199 200 200 202 205 205
339 341 327 308 312 324 349 353 355 359 1 2 2 2 359 357 10 14 347 329 321 284 266 264 260 260 253 223 209 215 218 204 190 200 210 214 215 220 225 224 212 206 212 217 211 207 207 206 201 200 201 204 207 205 208 218 216 212 215 216 214 216 213 208 205 201 199 199 201 199 193 193 197 196 195 196 196 198 194 189 194 198 197 197 198 200 203 205
323 333 343 340 342 355 3 3 11 14 3 0 348 344 350 356 11 25 10 349 313 276 270 278 279 267 264 257 228 217 237 215 185 196 215 215 210 210 217 219 207 204 214 213 205 205 206 204 205 210 213 218 221 216 221 225 210 210 221 218 212 213 212 209 206 202 200 201 205 204 195 191 196 198 199 200 201 205 207 198 194 195 196 196 194 193 195 198
321 323 341 342 309 335 1 353 358 9 6 2 354 346 358 11 17 14 3 355 337 302 275 281 284 264 260 267 233 223 237 218 196 208 217 216 215 208 211 213 206 208 216 210 203 205 207 207 214 221 222 225 229 226 228 230 213 215 223 219 216 216 210 211 214 211 210 210 206 203 196 193 198 199 199 202 204 206 207 202 195 190 190 194 192 190 191 193
338 322 332 340 313 306 306 321 338 8 11 359 355 357 4 15 17 12 1 351 358 14 334 281 284 278 272 263 226 221 222 213 212 218 214 220 230 218 210 209 208 214 216 210 207 209 210 213 221 226 224 227 229 224 223 231 225 217 217 214 216 217 214 218 222 215 209 204 198 197 196 197 201 201 200 201 200 199 199 197 191 187 187 192 194 194 195 196
340 325 321 324 319 311 303 318 334 6 8 0 1 355 354 2 3 1 4 355 352 4 346 315 307 295 290 271 223 216 216 215 216 212 213 227 238 225 213 209 211 219 219 216 214 211 211 219 226 224 220 225 228 223 221 225 225 221 220 218 215 217 220 222 216 207 201 197 194 193 194 199 203 203 201 201 198 196 197 195 192 191 192 193 196 198 196 196
316 305 322 315 311 330 351 347 1 22 358 357 4 352 353 6 360 345 350 355 352 349 341 340 330 290 276 267 244 232 227 232 234 226 228 239 239 230 223 222 223 225 223 221 218 215 214 221 227 223 220 225 230 230 227 225 226 228 228 226 223 219 219 220 215 208 202 196 193 194 197 203 205 202 200 201 200 199 201 202 199 197 194 194 198 200 197 196
331 293 339 341 295 315 325 327 8 27 348 342 348 341 349 13 16 357 347 358 12 3 335 329 323 294 271 243 271 275 256 247 245 240 240 245 248 246 235 229 230 229 228 224 220 219 218 220 224 224 223 225 229 234 235 228 227 231 227 226 229 223 219 225 223 209 202 201 201 202 204 206 206 204 203 204 204 203 204 205 203 200 195 194 198 200 198 198